Wind_Speed
12 12 12 11 11 10 9 7 7 6 6 7 6 7 7 6 6 5 4 4 3 3 3 3 2 2 2 3 4 4 5 4 3 2 1 1 1 2 3 4 5 6 7 7 9 9 7 9 11 11 12 13 14 15 16 16 17 20 22 24 27 21 16 25 31 20 11 10 12 15 17 23 30 32 32 29 26 26 20 14 18 18 17 21 16 12 22
13 12 12 11 10 9 8 8 7 7 7 7 7 6 6 6 6 5 4 4 3 3 2 2 2 2 2 3 4 4 4 3 3 2 1 0 1 2 3 4 5 6 6 7 9 8 7 9 10 11 11 12 13 14 15 15 16 19 21 22 24 20 19 25 24 15 11 9 11 16 21 27 31 32 30 27 26 27 22 19 17 12 14 19 13 15 28
13 12 11 10 10 9 9 9 9 8 8 7 7 6 6 5 5 4 3 3 3 2 2 1 2 2 2 3 3 4 4 3 3 1 0 0 1 2 3 4 4 5 6 6 8 8 7 9 9 10 11 11 13 14 14 14 16 18 19 21 22 21 22 23 16 8 7 8 11 16 22 28 30 29 27 25 25 24 22 18 13 12 15 19 21 30 46
12 11 11 11 10 10 10 10 9 8 8 7 6 6 5 4 3 3 2 2 2 2 2 2 2 2 2 3 3 3 4 3 3 2 1 1 1 2 3 4 4 5 6 6 7 8 8 8 9 10 11 11 12 13 13 13 15 17 18 19 20 21 23 23 19 15 14 17 18 18 22 26 28 27 24 23 23 23 23 17 14 18 20 23 31 36 44
13 13 12 12 11 11 10 9 8 7 6 6 5 4 4 3 2 1 1 1 1 1 2 3 3 2 2 2 2 3 3 4 3 2 2 2 2 2 3 4 4 4 5 5 6 8 8 8 10 10 11 11 12 13 12 12 15 17 18 19 20 21 22 23 24 26 23 21 20 20 21 24 26 25 21 20 21 22 23 19 19 23 20 25 37 36 37
14 14 13 12 11 10 9 9 8 7 6 6 5 4 3 2 1 1 1 1 1 1 1 2 2 2 1 1 1 2 3 4 4 3 3 3 3 2 3 4 4 4 5 5 6 7 8 9 10 10 11 11 12 13 12 11 15 17 17 19 20 20 22 24 27 28 24 19 21 23 25 25 23 21 18 18 20 21 23 23 24 25 24 31 44 41 39
14 14 13 12 12 11 10 10 9 8 7 6 5 4 4 3 2 2 2 1 1 1 1 1 2 2 2 1 1 1 2 3 4 4 3 4 4 3 3 4 4 4 4 5 6 7 8 9 9 11 11 11 12 13 11 11 15 16 17 20 20 20 23 25 28 29 23 19 24 28 29 26 19 15 16 19 21 21 23 27 30 33 36 40 43 41 43
15 14 14 13 12 11 11 10 9 8 7 6 6 5 4 4 3 2 2 2 2 1 1 2 2 2 2 2 2 2 3 3 4 4 4 4 4 4 4 5 5 5 4 5 6 7 9 10 9 11 11 11 12 13 11 12 14 16 18 20 20 22 24 25 29 30 25 23 29 31 30 23 14 12 16 20 23 23 25 30 35 38 41 41 38 41 48
15 15 14 13 12 11 10 9 8 7 6 6 5 5 4 4 4 4 3 2 2 2 1 2 2 2 2 2 2 3 3 4 4 5 5 5 5 5 5 5 6 5 5 6 6 7 9 10 10 10 11 12 12 12 12 12 14 16 18 19 21 23 24 26 29 29 28 28 32 33 27 16 10 13 19 22 23 26 30 36 40 40 39 37 37 43 50
15 14 13 12 11 10 9 8 7 6 5 5 4 4 4 4 4 5 4 4 3 2 2 2 3 3 3 3 4 4 4 4 5 5 5 6 6 6 6 6 6 6 6 6 6 8 9 10 10 10 11 11 11 12 12 12 14 17 17 19 22 23 25 28 26 26 29 30 33 31 20 9 8 16 22 22 25 31 37 42 43 38 32 32 38 45 50
14 13 11 10 9 8 7 6 6 5 5 4 4 4 4 4 5 5 5 5 4 4 3 3 3 4 4 4 5 5 4 4 5 5 6 6 6 6 6 6 7 6 6 7 7 8 9 10 10 11 11 11 11 12 11 11 15 17 18 20 22 23 26 26 24 25 27 32 35 26 8 4 13 21 23 24 28 35 41 45 44 35 29 34 44 49 50
11 10 9 8 8 7 6 6 5 5 5 4 4 4 4 5 5 5 5 5 5 5 5 4 4 4 5 5 6 6 5 5 6 6 7 7 7 7 7 7 7 7 7 7 8 8 9 10 10 11 11 10 11 12 10 11 15 17 18 20 21 24 26 24 25 25 26 33 34 16 3 12 21 21 23 27 34 39 44 49 45 34 33 42 50 51 51
8 8 7 7 7 6 6 5 5 5 5 5 5 5 5 5 6 6 6 6 6 6 6 6 5 5 5 6 6 6 6 6 6 7 7 7 7 7 7 7 8 8 8 8 8 8 9 10 10 11 11 10 11 12 10 11 15 17 19 20 21 24 24 24 26 24 22 28 24 10 11 21 19 18 24 31 38 42 46 51 46 34 37 49 52 51 53
6 6 6 6 6 6 5 5 5 5 5 5 5 6 6 6 6 7 7 7 7 7 7 6 6 6 6 6 7 7 7 7 7 7 8 8 8 8 8 8 8 9 8 8 8 9 9 10 11 11 11 10 11 11 10 12 15 17 18 19 21 23 24 24 23 20 20 24 22 19 20 18 14 20 29 35 41 42 43 48 43 35 41 51 51 51 54
4 4 5 6 6 6 6 6 6 6 6 6 6 6 6 7 7 8 8 8 8 8 7 7 7 7 7 7 7 7 8 8 8 8 8 8 9 9 9 9 9 9 9 9 9 9 10 10 11 11 10 10 10 10 10 13 15 16 17 19 21 22 23 22 20 19 21 22 20 17 12 9 15 26 34 39 43 41 41 44 40 39 46 51 50 51 53
3 4 6 7 8 8 8 7 7 7 7 7 7 7 7 7 8 8 8 9 9 9 8 8 8 8 8 8 8 8 8 9 9 9 9 9 9 9 9 10 9 9 10 10 9 10 10 10 11 11 10 10 11 11 11 13 16 17 17 19 21 21 21 21 19 19 21 19 13 8 6 10 20 30 36 41 41 42 42 36 35 43 49 48 48 50 50
5 6 8 9 10 10 10 9 9 8 8 8 9 9 8 8 8 9 9 9 9 9 9 9 9 9 8 8 8 8 9 9 9 9 9 9 10 10 10 10 10 10 10 10 10 11 11 11 12 13 12 12 13 13 13 14 16 17 17 19 21 21 21 20 19 20 22 19 15 12 12 15 23 31 38 40 40 40 33 21 28 46 49 45 47 48 47
8 9 10 11 11 11 11 10 10 9 9 9 9 9 9 9 9 10 10 10 10 10 10 9 9 9 9 8 9 9 9 9 9 9 10 10 10 10 10 11 11 11 11 11 12 12 12 12 13 13 13 13 13 13 14 15 17 18 18 19 20 20 20 20 20 22 22 18 18 20 20 19 25 33 38 38 37 34 25 21 34 47 45 43 46 46 46
10 11 11 11 11 11 10 10 10 10 9 10 10 9 9 10 10 10 11 11 11 11 10 10 10 10 9 9 9 9 9 9 9 10 10 10 10 11 12 11 11 11 11 12 12 12 13 13 13 13 13 13 13 14 16 17 18 19 18 18 19 19 19 19 21 22 22 20 21 21 19 22 31 37 37 36 34 32 31 36 42 43 41 44 45 44 46
10 10 10 9 9 9 9 9 9 9 9 10 10 10 10 10 10 11 11 11 12 12 11 11 10 9 9 9 9 9 9 9 10 10 10 11 11 11 12 12 11 12 12 12 12 12 13 13 13 12 12 13 14 16 17 19 20 18 18 19 20 19 18 20 22 21 19 19 17 14 17 27 36 37 36 35 35 36 39 42 42 41 42 44 44 45 47
9 8 8 9 9 8 9 9 9 9 9 10 10 10 10 11 11 11 12 12 12 12 12 11 10 9 9 9 9 9 9 9 10 10 10 11 11 11 12 12 12 12 12 12 13 13 13 14 14 14 14 15 17 17 18 21 21 19 18 20 20 19 18 21 23 20 17 16 15 16 24 33 36 35 35 36 37 38 40 42 42 43 43 43 44 46 46
8 8 8 9 9 9 9 9 9 9 9 9 10 11 11 12 12 13 13 13 13 13 12 11 10 10 10 9 9 9 9 9 10 10 11 11 12 12 13 13 13 13 13 13 14 14 15 16 16 16 17 18 18 18 20 22 22 20 20 20 20 21 22 23 24 23 22 22 23 26 30 33 34 36 37 37 38 39 40 41 42 43 43 44 45 45 45
8 9 9 9 9 10 10 10 10 10 10 10 10 10 11 12 13 13 13 13 12 12 12 11 11 10 9 9 9 9 9 9 9 10 11 12 12 13 13 13 13 14 14 14 15 15 16 17 17 18 18 18 19 20 21 22 22 22 23 23 22 23 24 24 26 27 27 28 28 30 33 34 34 36 38 38 39 40 40 41 41 42 43 44 44 44 45
10 10 10 10 11 11 11 12 12 12 12 11 11 11 11 11 12 12 12 12 12 11 11 10 9 8 8 8 8 8 9 9 9 10 11 12 13 13 14 14 14 14 15 15 15 16 17 17 18 18 19 18 19 20 21 22 23 24 25 25 24 23 24 26 27 28 30 31 31 32 35 36 34 36 38 39 40 41 41 42 42 42 43 44 44 44 44
12 12 13 13 14 14 14 14 13 13 13 13 12 11 11 10 10 10 10 10 10 10 10 9 8 8 8 8 8 8 9 9 10 11 12 13 14 14 14 15 15 15 15 15 16 17 17 18 18 19 19 20 20 21 22 23 24 26 26 25 23 24 25 27 28 30 32 34 33 33 36 36 34 36 39 39 40 42 42 42 42 42 42 43 44 44 44
14 14 15 15 16 16 16 15 15 15 15 14 13 12 11 10 9 9 9 9 9 8 7 7 7 6 6 7 8 8 9 9 11 12 13 14 15 15 15 15 16 16 16 16 16 17 18 18 19 19 20 21 21 22 23 24 25 27 25 21 20 24 26 26 29 33 35 34 33 35 37 37 35 37 39 39 40 42 42 42 43 43 42 42 43 44 44
16 16 17 17 17 17 17 17 17 16 16 15 14 12 11 10 9 8 8 8 7 6 6 6 6 6 6 6 7 7 9 10 11 13 14 15 16 16 16 16 16 16 16 17 17 17 18 19 19 19 20 21 22 24 24 24 26 27 23 19 19 23 25 25 29 33 34 33 33 35 37 37 36 37 39 39 40 41 42 43 43 43 42 42 42 43 44
18 18 18 18 18 17 17 16 16 16 15 15 14 12 11 9 8 8 7 6 6 6 6 6 6 6 6 6 7 8 9 11 12 13 14 16 16 17 17 17 17 17 17 17 18 18 19 19 19 20 20 20 22 24 24 24 27 25 20 19 22 24 25 26 28 32 33 32 32 34 36 37 37 37 38 39 40 41 42 43 43 43 43 42 42 42 43
19 19 19 18 18 17 16 15 14 14 14 13 12 11 10 9 8 7 7 7 7 7 7 7 6 6 7 7 8 9 10 11 13 14 15 16 16 17 18 17 17 17 17 18 18 18 19 20 19 20 20 19 22 25 24 25 27 23 18 19 24 25 26 27 29 31 33 32 32 34 36 36 37 37 38 39 40 41 42 42 42 43 42 42 42 42 42
20 20 19 19 18 17 15 13 13 13 13 12 11 10 9 9 8 7 7 7 7 7 7 7 7 8 8 8 9 10 11 13 14 14 15 16 17 18 18 17 17 18 18 18 19 19 20 20 19 19 19 19 22 25 26 26 27 22 18 22 26 27 27 28 29 31 34 34 33 35 35 36 37 38 38 39 40 41 42 42 42 42 42 42 42 42 42
22 21 21 20 18 16 14 13 12 12 12 12 11 10 9 9 8 8 7 7 7 8 8 8 8 8 8 9 10 12 13 13 14 15 16 17 17 17 18 17 18 18 18 18 19 20 19 19 19 19 19 20 22 25 26 27 27 24 22 24 27 28 29 29 30 31 34 34 35 36 36 36 37 39 39 39 40 40 41 42 42 42 42 42 42 42 42
22 22 21 20 18 16 14 13 13 13 12 12 11 10 10 9 9 9 9 9 9 9 9 9 10 10 10 11 12 13 13 14 16 16 17 18 18 18 18 18 18 18 18 18 19 19 19 19 20 21 21 21 23 25 26 25 25 25 25 26 27 28 29 30 30 31 33 34 35 37 37 36 37 39 39 40 40 40 41 41 41 42 42 41 42 42 42
22 22 21 19 18 16 14 13 12 12 12 11 11 11 10 10 10 10 10 10 10 10 10 11 11 11 11 12 13 14 15 16 16 17 18 18 18 18 18 18 18 18 18 18 19 20 21 21 21 22 22 22 23 25 25 22 22 25 27 28 28 30 30 30 30 31 32 33 34 36 37 37 38 38 39 40 40 40 41 41 41 41 41 41 42 42 42
22 22 20 19 17 15 14 13 13 13 12 11 11 11 11 11 10 10 11 11 10 11 11 11 12 13 13 14 14 15 17 18 18 19 19 19 19 19 19 18 18 19 19 19 19 20 21 22 22 23 22 22 23 25 24 21 22 26 29 28 29 31 32 31 31 32 32 33 35 36 38 38 38 38 39 39 40 40 41 41 41 41 41 41 41 42 42
21 21 20 19 17 16 15 14 13 13 13 12 12 12 12 12 12 12 11 11 11 11 11 12 13 15 16 16 17 18 19 20 20 21 21 20 20 20 20 19 19 19 20 20 19 20 20 21 22 23 23 22 22 23 22 22 24 28 30 30 31 32 33 34 34 34 34 35 36 37 38 39 39 39 39 39 39 40 41 41 41 41 41 41 41 41 41
21 20 19 19 17 16 15 15 14 14 13 13 13 13 13 12 12 12 12 12 12 12 13 14 16 17 18 18 19 20 21 21 21 21 21 21 21 21 20 20 20 20 21 20 19 20 20 21 22 24 24 22 20 18 20 23 27 30 31 33 34 35 36 37 38 38 38 38 38 39 40 40 40 40 40 40 40 40 40 40 41 42 41 41 41 41 41
20 19 19 18 17 16 15 15 15 15 14 14 13 13 13 13 13 13 13 12 13 13 15 16 17 18 19 20 20 21 22 22 22 21 21 22 22 21 20 21 22 22 22 22 20 20 21 22 23 25 23 20 17 17 20 25 30 32 34 34 35 37 38 39 40 41 42 41 41 40 41 42 41 41 41 41 40 40 40 40 41 41 41 41 41 41 41
18 18 18 18 17 16 15 15 15 14 14 14 14 14 14 14 14 14 14 14 14 15 16 17 17 18 19 20 21 22 22 22 22 22 22 23 23 21 21 22 23 22 23 23 21 21 22 24 26 25 21 17 17 19 24 29 34 36 37 38 38 39 40 40 41 42 43 43 43 42 42 43 42 42 42 42 42 41 41 40 40 41 41 41 41 41 41
17 17 17 17 17 16 15 15 14 14 13 13 13 14 14 14 14 15 14 14 15 15 16 17 18 19 20 21 21 22 23 23 23 23 24 24 23 21 22 24 23 23 24 23 22 22 24 26 27 26 21 18 19 24 30 36 39 40 42 43 42 41 41 41 41 42 43 44 44 44 44 44 44 43 43 43 43 43 42 41 41 41 41 41 41 42 42
16 16 16 16 16 15 15 14 14 13 13 13 13 13 13 14 15 15 14 14 15 16 16 18 18 19 20 21 23 23 24 24 24 25 26 25 23 23 24 24 23 23 23 22 22 24 27 27 27 25 22 22 26 32 37 41 43 44 45 46 45 44 44 44 43 43 44 45 45 45 45 46 46 45 45 44 44 44 43 42 42 42 42 42 42 42 42
16 15 15 15 15 15 14 14 13 12 12 13 13 14 14 14 15 15 15 15 16 16 17 19 19 20 21 23 24 25 26 25 26 28 28 27 25 25 25 25 23 21 20 21 24 27 28 27 25 23 24 28 34 38 40 43 44 45 46 46 47 46 46 45 45 45 46 46 45 45 46 46 47 47 46 46 45 45 44 43 43 43 43 42 42 42 42
15 15 15 15 15 14 13 12 12 12 12 13 14 15 15 15 16 16 16 17 17 18 19 20 21 22 23 25 26 27 27 27 28 30 30 28 27 26 26 24 22 20 21 24 27 27 27 25 23 23 28 33 37 39 42 45 46 46 46 47 48 48 48 47 47 46 46 46 46 46 46 46 47 47 47 47 47 46 46 45 44 44 44 43 42 42 42
14 15 15 14 15 14 13 12 12 13 12 13 15 16 16 17 18 18 17 18 19 20 21 22 23 25 26 27 28 29 29 29 30 32 31 29 28 27 25 23 22 23 25 27 27 25 25 24 24 28 35 39 38 38 42 44 46 47 47 47 48 49 49 49 49 48 47 47 47 46 46 46 46 46 47 47 47 47 47 46 45 45 45 44 43 42 42
14 15 15 14 15 15 13 12 13 14 14 15 17 18 18 18 19 19 19 20 21 22 23 25 26 27 28 30 31 31 30 30 32 32 30 29 28 27 24 22 25 27 28 26 25 25 24 24 27 34 40 42 41 41 42 43 45 48 49 49 49 50 50 51 52 51 50 49 48 48 48 48 47 46 46 46 46 47 47 46 46 46 46 46 44 42 42
15 16 15 15 15 15 13 12 13 15 16 17 18 19 20 20 21 21 22 23 23 24 26 27 28 29 31 32 32 32 31 32 33 32 30 30 29 26 23 25 28 29 26 25 25 25 26 28 33 39 43 44 44 45 45 45 47 50 51 52 52 52 53 54 55 54 53 52 50 50 49 48 47 46 45 45 45 46 46 46 47 46 47 46 44 42 42
17 17 17 17 16 15 14 14 14 16 18 19 20 21 21 22 22 24 25 26 26 27 28 29 30 32 33 33 33 33 32 32 32 31 30 29 27 26 27 28 26 23 22 24 25 27 29 34 39 42 44 46 47 48 48 49 51 52 54 56 56 55 55 56 56 56 55 53 52 51 50 49 48 47 46 45 45 45 46 46 47 47 47 46 44 42 42
20 19 19 19 17 16 16 17 17 18 20 21 22 23 24 24 25 26 28 28 29 29 30 31 32 33 34 34 33 33 32 32 31 29 28 27 28 28 28 25 22 21 22 25 28 31 36 41 45 46 47 49 51 52 53 53 54 54 56 57 57 56 56 56 56 55 54 53 52 52 51 50 50 50 49 47 46 45 45 46 47 47 47 46 44 42 43
22 22 21 20 19 19 19 20 20 21 23 24 25 25 26 27 28 29 30 30 30 31 31 32 33 34 34 33 33 33 32 30 28 27 27 28 28 26 23 22 23 24 25 28 33 39 44 47 48 49 50 52 53 55 56 56 56 56 57 57 57 56 55 55 54 53 52 52 52 52 52 52 53 52 51 50 49 48 47 47 47 47 47 45 43 42 42
22 22 21 21 21 21 23 23 24 25 25 26 27 28 28 29 29 30 30 30 31 31 31 32 32 32 32 32 32 32 31 28 26 27 29 29 27 24 23 24 26 27 28 32 39 45 48 49 51 53 54 55 56 57 58 58 58 57 57 57 56 55 54 53 52 51 51 52 54 55 56 57 57 57 55 54 53 51 50 49 48 47 46 44 43 42 42
21 21 20 20 21 22 23 24 25 25 25 26 27 28 28 28 29 29 29 29 29 30 30 31 31 31 31 31 30 29 28 27 28 30 31 29 26 25 25 27 29 31 34 39 44 48 49 51 54 55 55 55 55 55 56 56 56 55 55 54 53 52 51 51 51 52 54 56 59 61 63 63 62 61 60 58 57 55 54 53 50 47 45 44 44 43 43
19 19 19 19 20 21 22 23 24 24 24 24 25 25 26 26 26 27 27 27 28 28 29 29 30 30 31 31 29 28 28 29 30 31 29 27 26 27 29 32 35 38 40 43 45 46 47 49 51 52 54 54 54 54 54 54 54 54 54 53 53 54 54 54 56 58 61 63 65 67 68 67 66 65 64 62 61 60 58 54 50 47 46 46 45 44 44
17 17 17 17 18 19 20 21 21 22 22 23 23 24 24 25 25 26 26 27 27 28 28 29 29 30 31 31 31 31 30 30 29 28 27 27 28 31 35 38 40 41 42 43 44 45 46 47 48 50 52 53 53 53 54 54 55 54 54 54 54 55 56 57 58 60 62 63 64 65 66 67 67 67 66 66 65 63 60 55 51 48 47 46 46 45 45
Wind_Direction
142 145 144 140 134 126 125 126 125 124 118 114 113 112 111 110 108 104 97 93 87 79 83 95 97 105 140 157 170 175 175 176 185 193 180 126 62 59 50 48 51 45 42 37 29 27 23 19 18 16 16 14 11 10 8 7 6 2 359 357 355 356 350 343 345 351 350 337 342 341 334 333 333 333 336 335 332 332 327 312 305 297 295 306 302 276 294
144 140 134 126 123 124 126 126 122 117 114 111 111 111 110 109 106 99 91 83 74 66 62 87 108 116 147 166 173 176 178 183 190 187 177 143 37 36 33 42 48 41 41 36 28 26 19 10 11 13 11 8 9 9 7 8 7 3 0 356 355 356 349 346 348 352 350 345 347 342 333 328 325 326 330 327 325 327 323 318 309 288 295 313 306 279 298
135 128 124 122 125 127 125 121 117 112 110 109 108 108 105 103 102 95 82 68 61 58 33 35 105 126 156 175 178 182 188 196 200 199 205 290 3 14 23 32 35 36 37 30 25 24 15 9 8 8 6 5 6 6 6 7 4 3 1 356 354 351 348 351 354 352 340 323 319 321 318 314 316 322 325 321 323 323 319 316 300 287 303 304 296 298 310
123 121 122 124 125 122 117 115 111 109 108 105 101 98 94 94 98 90 77 51 37 49 45 39 65 103 141 172 184 192 202 213 219 235 277 304 330 358 14 16 21 28 28 24 19 13 7 6 4 3 3 2 2 3 4 4 2 1 359 354 353 350 348 348 344 337 330 318 314 316 312 308 313 321 321 320 324 320 318 312 287 296 303 293 301 306 307
118 119 120 119 117 115 112 110 107 105 104 98 91 86 82 86 83 54 30 345 348 19 50 52 47 61 110 155 182 200 219 231 234 253 281 303 323 334 357 4 9 17 19 19 12 5 2 360 359 0 360 358 360 360 360 2 0 357 355 352 352 349 346 344 340 339 338 329 326 327 319 314 317 319 319 323 325 319 316 308 299 309 301 293 314 317 305
119 117 115 113 111 109 105 102 99 96 92 88 85 80 74 67 48 37 22 348 335 344 22 46 41 41 63 94 175 214 236 243 247 263 279 300 320 322 339 353 358 4 10 10 4 1 360 356 354 356 356 355 356 355 357 360 357 354 351 350 350 348 345 342 340 344 346 336 333 335 329 323 321 317 319 325 324 319 317 313 314 314 300 304 322 323 315
115 112 109 107 104 101 98 94 90 86 83 80 77 72 66 57 50 53 38 354 329 327 345 360 6 16 23 13 326 265 257 257 262 271 285 302 314 317 327 342 346 350 355 357 359 360 357 354 351 351 353 353 352 352 355 354 351 351 349 348 350 347 344 342 340 345 351 342 339 341 334 326 321 316 320 325 325 324 321 322 325 321 314 319 326 323 324
110 107 104 101 97 93 90 86 82 79 75 72 67 61 56 48 39 35 31 5 333 329 335 323 323 337 345 341 323 294 274 270 272 275 290 306 313 313 319 330 335 337 338 344 354 357 354 352 349 349 350 350 349 350 351 349 347 349 348 347 349 346 343 344 340 341 350 349 343 342 333 323 315 316 326 329 328 328 325 326 329 326 324 328 327 324 330
105 102 98 93 88 83 79 75 72 69 65 60 55 47 41 36 28 22 22 11 341 329 326 312 307 307 312 317 315 303 291 284 281 279 290 305 312 312 314 319 326 330 329 335 345 350 351 349 346 347 347 346 347 345 344 346 345 346 348 346 347 346 343 344 340 338 344 347 344 340 332 318 309 324 333 334 330 329 328 330 334 333 329 329 328 327 333
101 97 91 85 79 73 68 64 59 55 51 44 37 31 25 20 16 14 10 5 350 337 328 310 297 292 294 301 308 307 301 293 286 283 292 303 309 310 311 315 321 326 324 327 336 340 344 344 341 343 343 342 345 343 340 343 343 344 347 346 347 347 344 344 342 335 337 345 345 340 329 308 317 333 337 336 332 332 332 334 338 337 329 326 329 331 335
98 91 82 75 68 61 55 50 44 38 31 24 14 8 5 360 358 360 359 358 351 339 327 309 296 292 290 294 301 304 304 297 289 287 293 301 306 309 311 312 317 321 318 320 327 330 335 339 336 337 338 337 341 341 336 339 342 342 344 345 346 346 344 344 342 333 333 342 345 341 323 297 329 334 336 335 334 334 333 334 338 338 332 333 335 336 338
94 83 70 60 53 48 42 35 29 21 14 6 356 349 346 340 338 340 343 344 343 339 329 312 300 294 289 291 296 300 303 298 291 289 292 298 304 308 310 309 311 315 313 313 319 321 326 331 331 333 334 332 337 339 333 335 341 341 342 344 344 344 344 344 341 334 332 340 347 352 328 322 328 332 336 337 337 337 334 336 343 344 340 340 340 340 341
88 71 57 48 42 36 30 23 15 7 359 353 344 337 331 327 326 327 328 329 331 331 326 314 303 294 289 290 292 297 302 299 293 292 291 296 303 305 307 307 306 309 310 309 310 312 319 325 326 329 330 327 331 334 332 334 339 340 340 341 342 343 344 344 341 337 333 338 343 341 321 325 327 332 338 338 338 339 335 337 345 348 341 341 343 343 342
78 59 45 37 29 20 14 7 359 352 346 340 334 328 323 319 317 316 316 316 318 321 319 313 305 297 290 288 289 293 299 297 294 292 292 297 302 303 305 305 303 306 308 307 305 306 312 319 323 326 326 323 327 333 333 334 337 337 336 338 341 343 344 343 340 337 335 331 326 319 322 329 334 339 340 338 338 339 335 334 341 346 342 342 344 343 343
56 33 19 13 6 359 353 345 339 334 329 325 323 318 314 312 309 308 308 308 310 314 315 310 307 301 290 285 286 291 295 296 294 293 294 297 300 301 303 303 302 304 304 304 303 301 306 313 318 321 321 318 324 331 330 329 333 335 334 337 341 341 341 341 337 332 332 330 325 323 324 327 335 338 338 337 338 339 335 331 337 345 343 342 344 344 344
360 347 344 342 340 338 335 329 324 319 315 313 312 309 305 303 302 301 301 302 305 309 310 307 303 299 290 283 284 288 292 294 293 293 295 297 299 301 303 302 302 303 302 303 300 298 300 305 310 315 315 312 316 323 326 328 332 335 335 336 339 338 337 338 334 330 330 327 319 306 287 308 329 334 336 337 338 337 335 330 335 342 342 341 343 344 343
322 320 321 323 326 326 325 322 318 313 309 306 305 303 301 297 296 296 296 297 299 302 304 302 298 296 291 284 282 285 289 291 292 293 296 299 301 303 303 304 305 303 299 300 299 297 297 298 303 309 310 309 312 316 321 328 332 334 334 334 336 337 334 333 331 328 327 320 307 301 302 315 328 333 334 336 336 336 336 329 331 337 339 339 342 342 342
310 312 315 318 320 320 319 318 316 312 309 305 302 300 296 292 291 291 291 292 294 297 299 298 295 293 288 281 280 284 287 290 292 295 298 301 303 304 304 305 306 302 298 299 299 297 295 294 300 306 307 309 313 313 318 325 329 332 332 331 333 335 332 329 329 327 325 315 302 306 314 324 331 333 334 334 334 334 331 323 328 334 337 339 341 341 341
314 316 318 319 320 321 321 321 318 315 312 308 303 299 294 290 288 287 287 287 290 294 296 294 292 289 283 278 278 281 284 287 290 295 300 303 304 305 306 306 304 302 299 298 296 295 295 295 297 301 302 306 310 312 317 322 325 329 330 328 330 331 329 327 327 326 323 314 305 307 319 331 334 333 333 332 331 328 326 327 332 335 336 338 341 342 342
322 323 324 325 328 328 328 328 325 322 318 312 307 302 295 290 287 284 284 284 286 291 293 291 289 285 281 279 277 279 281 284 288 294 299 304 307 307 307 307 307 305 300 297 296 296 295 296 298 298 299 303 307 309 314 319 324 328 328 326 327 327 324 324 325 325 322 316 312 314 323 330 331 330 330 330 329 327 329 332 336 337 336 338 341 343 343
334 337 339 339 340 338 335 332 327 323 317 309 306 302 294 290 287 283 281 282 285 289 290 290 287 282 280 278 276 276 279 282 288 295 300 305 309 307 306 308 308 305 301 296 297 297 295 296 297 296 296 301 304 306 310 315 321 326 327 325 325 325 322 319 321 323 318 312 315 321 323 325 328 328 327 328 329 330 332 334 335 337 337 338 340 343 344
357 358 357 355 353 350 346 342 336 328 321 309 302 297 291 288 286 283 282 282 284 287 289 288 286 282 280 277 274 275 278 281 289 296 302 307 309 308 308 309 307 304 300 296 296 296 294 294 295 295 296 299 301 304 308 310 314 321 325 322 320 322 321 317 315 317 315 315 322 326 324 326 329 328 327 329 330 331 332 333 335 336 336 337 340 342 344
15 11 8 4 1 358 353 349 343 336 330 321 312 304 295 291 288 286 286 286 287 288 288 287 286 283 280 277 274 275 279 284 291 298 303 307 311 311 311 309 307 305 302 297 295 295 294 295 295 294 296 298 300 303 307 308 311 316 320 319 318 318 318 316 317 318 318 325 332 330 327 330 330 327 328 330 330 330 331 332 334 335 335 337 339 340 342
19 14 10 6 3 0 355 350 345 340 336 330 325 319 311 304 299 295 293 292 290 291 292 292 290 287 281 278 276 276 280 285 291 298 305 310 313 314 313 310 307 306 303 300 297 295 295 297 296 295 296 296 299 302 304 307 311 315 317 319 320 318 315 316 320 318 317 326 335 331 327 331 332 328 329 331 330 330 331 332 333 334 335 336 338 339 341
18 13 9 6 3 0 357 352 348 344 341 338 333 327 321 316 310 305 301 298 296 296 296 297 297 291 284 282 281 282 285 289 293 299 306 311 314 316 314 311 308 306 304 302 298 296 297 297 297 297 296 296 298 301 303 307 310 313 317 322 321 316 315 318 320 317 318 327 334 330 328 333 334 330 330 331 330 330 331 332 333 333 334 335 337 338 339
18 13 9 6 2 359 356 354 350 346 345 343 340 336 332 326 321 316 310 307 306 305 305 309 310 302 293 291 291 291 292 295 297 301 306 311 314 316 315 312 309 306 305 303 300 298 298 298 298 298 297 297 298 300 304 309 310 312 320 326 317 311 315 319 317 317 322 330 332 329 329 334 335 331 330 331 331 330 332 332 333 332 333 334 336 337 338
13 9 5 1 359 355 353 352 350 348 348 348 347 346 342 336 331 328 324 322 323 324 326 328 324 316 308 305 303 302 303 304 304 305 307 311 314 314 314 313 310 307 306 304 301 300 299 299 299 298 297 298 299 300 305 310 310 313 324 325 312 310 318 320 316 317 324 331 331 328 329 332 334 332 331 332 331 331 332 333 333 332 333 333 334 335 336
8 5 1 358 356 353 351 350 349 348 349 351 352 351 349 346 343 341 339 338 340 340 339 335 328 323 323 322 317 312 311 311 309 309 310 312 313 313 315 314 311 308 307 304 302 301 300 300 300 299 300 301 301 301 305 309 311 317 326 320 312 315 321 320 318 318 323 329 330 327 327 331 332 332 332 332 331 331 332 333 333 332 332 332 333 334 335
7 4 1 359 356 353 351 350 350 351 353 355 356 356 355 355 354 352 353 353 352 349 346 343 339 336 334 330 323 320 318 316 314 314 314 315 315 315 315 314 311 309 308 305 304 303 301 301 301 300 301 302 300 301 306 309 312 321 327 317 315 320 322 321 321 321 323 328 329 327 328 331 331 332 333 332 331 331 332 332 332 332 332 332 332 333 333
9 7 5 4 1 358 355 353 354 356 358 1 4 3 0 360 359 357 357 359 358 356 353 350 347 343 340 335 330 327 325 322 320 320 320 318 318 316 315 314 312 310 308 306 305 304 303 304 304 302 302 302 299 300 305 309 312 322 329 321 319 322 322 322 324 322 324 328 328 327 330 332 331 333 334 332 331 332 331 332 332 332 332 332 331 332 332
11 10 10 8 6 4 3 1 1 3 4 7 10 8 6 7 5 2 2 4 3 2 359 355 352 349 346 342 336 333 332 329 327 327 324 321 320 318 316 315 313 311 310 308 306 305 305 305 305 304 303 302 298 299 304 307 311 321 329 324 322 323 323 324 325 324 325 328 328 329 333 334 332 334 335 333 332 331 331 331 332 332 332 332 331 331 332
13 13 12 11 10 11 10 8 6 7 9 12 13 12 12 12 9 7 6 4 2 2 0 357 356 354 351 347 342 340 338 335 333 332 328 326 324 323 320 318 316 314 313 311 308 308 308 309 307 306 304 302 300 300 304 307 310 320 327 326 324 324 325 326 327 326 326 328 328 330 334 335 335 335 335 333 332 332 331 331 331 331 332 332 331 331 332
15 15 15 14 14 14 13 11 10 11 13 14 15 14 13 12 9 7 4 2 1 1 359 357 358 358 355 351 349 347 345 342 341 340 336 332 331 329 327 325 322 319 317 315 312 311 311 311 309 307 305 303 300 301 306 312 318 323 328 328 326 325 326 327 328 328 329 329 330 331 334 337 338 337 335 334 334 333 332 332 331 331 332 332 332 332 332
16 18 18 17 16 15 15 14 14 14 14 13 12 12 10 8 7 4 2 1 1 1 3 3 3 2 0 358 356 354 352 350 349 347 343 341 338 336 335 332 327 323 321 319 317 314 312 312 310 308 307 306 302 301 308 319 326 327 329 330 327 326 327 329 329 330 330 331 332 333 335 337 338 338 337 336 336 335 335 334 333 332 332 332 332 332 333
18 19 19 18 17 17 18 17 16 15 15 13 11 9 6 5 6 6 6 6 6 8 13 12 8 6 5 3 1 358 355 353 352 349 346 345 341 339 337 334 330 326 324 322 320 318 314 312 311 309 309 310 308 306 311 321 329 330 332 332 330 329 329 330 330 331 331 331 333 333 334 335 337 337 337 337 337 337 337 337 335 334 333 333 332 332 333
18 19 19 18 18 19 20 20 18 17 17 15 12 10 9 10 11 11 13 16 16 17 17 14 10 9 6 3 1 357 353 352 351 349 346 344 342 339 337 334 332 329 326 324 324 321 317 314 312 312 314 316 316 313 316 324 330 334 335 334 332 331 330 330 330 330 330 331 332 332 332 333 335 336 336 337 337 337 338 338 337 336 335 334 332 332 334
16 19 20 19 19 19 21 21 20 19 19 17 16 16 18 20 20 20 22 24 22 19 15 11 9 7 4 359 357 355 352 352 352 351 349 346 343 341 339 336 335 332 329 328 328 325 322 319 316 317 323 325 321 320 325 330 333 334 335 334 333 330 329 329 329 328 328 328 330 330 330 331 333 334 334 335 335 336 337 338 338 337 337 335 333 333 334
14 17 19 19 19 20 20 20 20 21 21 22 23 24 26 26 25 24 23 21 17 13 10 6 4 3 1 359 357 355 354 353 353 352 350 346 343 342 340 337 335 333 330 330 329 327 326 324 321 324 332 332 323 323 331 333 333 334 334 334 333 331 329 328 328 326 325 326 327 327 327 328 330 331 332 332 333 334 335 336 336 338 338 337 335 334 334
10 14 17 19 20 20 20 20 21 21 23 24 25 25 26 25 22 20 18 15 12 10 7 5 4 2 1 359 357 355 353 351 350 349 348 344 341 340 337 334 332 330 328 327 327 327 326 325 324 328 335 335 326 327 331 332 333 333 333 332 332 331 328 327 327 325 324 324 325 325 325 325 326 328 329 330 330 331 332 333 334 335 337 337 336 335 334
4 9 14 17 19 20 20 21 22 24 25 26 26 26 26 24 22 21 19 16 14 12 8 4 3 1 358 357 355 353 351 348 347 346 344 341 338 336 334 332 329 326 325 324 325 326 324 322 325 332 341 339 332 330 331 331 331 331 330 329 330 329 327 326 326 325 324 324 324 324 323 323 324 325 326 327 327 328 329 329 330 331 333 334 334 334 334
1 5 8 11 14 16 18 19 22 24 26 25 26 25 25 23 20 18 16 13 11 8 4 360 358 356 354 353 352 350 348 346 344 343 341 339 337 335 333 331 328 323 321 322 323 323 322 322 329 340 346 341 335 332 330 328 327 327 327 326 326 326 325 325 324 323 323 323 323 323 322 322 321 322 323 324 325 325 326 326 327 328 329 329 330 332 333
359 360 0 3 6 8 10 13 16 18 19 19 19 19 17 14 12 11 8 5 1 357 356 354 353 351 350 349 348 346 344 343 342 340 338 337 335 332 331 330 326 320 319 321 321 320 321 324 331 339 341 338 335 331 328 325 323 324 324 323 322 322 323 322 322 321 321 320 321 321 321 320 319 319 320 321 322 322 323 323 324 325 325 326 326 328 329
354 355 356 357 358 358 0 5 8 11 13 13 11 11 9 7 4 3 360 356 352 350 349 349 347 345 344 343 343 342 341 339 338 336 334 333 332 329 327 326 322 319 319 320 319 320 322 326 331 335 335 333 331 328 325 322 321 320 319 318 319 319 319 319 319 319 318 318 318 319 318 317 317 317 318 318 319 319 320 320 321 322 322 323 323 324 325
347 349 350 350 350 350 353 358 1 4 7 6 3 2 1 358 357 354 351 348 345 344 344 343 342 341 340 338 337 337 337 336 335 332 330 330 328 325 321 320 320 320 319 317 317 320 325 329 333 335 332 328 325 322 319 317 316 314 314 314 315 315 315 315 316 316 317 317 317 316 316 316 316 316 316 316 316 316 317 318 318 319 319 320 320 320 321
338 340 342 343 345 346 349 352 353 355 356 355 353 351 350 348 346 345 343 341 340 338 337 337 336 335 334 333 333 333 332 332 331 330 328 326 324 320 318 319 319 317 314 312 314 319 325 330 333 331 327 321 318 315 313 313 312 312 312 312 313 313 313 313 314 314 315 316 315 314 315 315 315 314 313 313 313 314 315 316 315 315 316 318 318 318 318
326 329 332 334 336 337 339 341 344 345 344 342 340 339 338 337 336 335 335 334 334 332 331 331 330 329 329 329 328 328 329 329 328 327 326 323 320 318 318 318 316 312 309 310 314 320 326 328 327 323 318 314 313 312 312 312 313 312 312 312 313 313 313 313 313 313 315 315 314 314 314 314 313 312 311 310 311 312 312 312 312 313 314 316 316 315 314
315 319 322 325 327 327 328 330 330 331 331 330 329 329 329 328 328 328 328 328 327 327 326 326 325 324 325 325 324 325 327 327 326 325 324 321 318 318 317 314 312 310 309 311 317 323 325 322 318 314 312 312 312 313 313 313 313 313 313 313 313 313 313 313 313 313 314 314 314 315 315 315 313 312 311 309 309 309 309 309 309 311 313 314 315 313 311
308 310 314 317 318 317 317 318 318 319 321 322 321 321 322 322 321 322 322 322 322 322 321 321 321 321 322 322 322 324 325 325 323 323 323 320 316 314 311 307 309 313 315 317 320 321 318 313 310 310 310 311 312 313 313 314 314 315 315 315 315 315 315 315 315 315 316 316 317 318 319 318 317 315 313 309 307 307 307 306 307 310 312 313 312 310 308
306 307 308 310 310 309 309 311 312 313 315 316 315 316 317 317 317 318 318 318 319 319 318 319 320 320 320 321 322 322 323 322 320 319 320 317 314 309 304 302 308 315 320 320 317 313 310 308 308 309 311 312 313 313 314 315 316 316 317 316 316 316 317 317 317 317 318 319 319 320 320 319 318 317 315 311 309 306 305 304 306 309 311 311 309 306 305
310 310 309 309 308 308 308 309 310 312 313 313 313 314 315 315 316 317 317 318 319 319 319 319 320 319 320 320 320 320 321 320 317 317 318 318 314 308 305 307 313 318 319 315 311 309 308 310 311 312 313 315 316 316 317 317 318 318 318 318 317 317 317 317 317 317 318 318 318 317 317 316 316 315 314 313 311 309 306 306 307 309 308 307 306 304 303
318 317 316 314 313 312 312 312 313 314 314 315 315 317 317 318 318 319 319 319 319 319 319 319 320 319 319 319 318 317 317 317 317 318 322 323 320 315 313 314 316 316 314 311 310 310 311 313 314 315 317 318 319 320 320 319 318 318 318 317 315 315 314 314 314 314 314 314 314 314 313 313 312 312 312 311 311 310 309 310 310 308 305 303 303 303 303
326 325 324 322 320 319 318 318 319 319 320 320 321 321 321 320 320 320 319 318 318 318 318 317 317 317 317 317 316 316 316 316 316 321 325 325 321 317 314 312 312 312 312 311 312 313 314 315 318 320 321 323 323 324 323 322 322 321 321 319 318 317 316 315 315 315 315 315 315 315 314 313 312 312 311 311 310 309 309 309 309 307 305 302 301 300 300
Height
3171 3172 3172 3173 3174 3174 3175 3175 3176 3176 3176 3176 3176 3176 3176 3176 3177 3177 3177 3177 3177 3177 3176 3176 3176 3176 3177 3177 3177 3177 3177 3177 3176 3176 3176 3176 3176 3175 3174 3174 3173 3172 3172 3171 3170 3169 3168 3167 3166 3165 3164 3163 3162 3161 3159 3158 3156 3154 3151 3149 3147 3145 3144 3141 3138 3135 3133 3131 3129 3127 3125 3123 3121 3120 3119 3118 3118 3117 3117 3115 3110 3108 3102 3098 3097 3084 3068
3172 3172 3173 3173 3174 3175 3175 3176 3176 3176 3176 3176 3177 3177 3177 3177 3177 3177 3177 3177 3177 3177 3177 3177 3177 3177 3177 3177 3177 3177 3176 3176 3176 3176 3176 3176 3175 3175 3174 3173 3173 3172 3171 3170 3169 3168 3167 3166 3166 3165 3164 3162 3162 3160 3159 3157 3156 3154 3152 3150 3148 3146 3144 3141 3137 3133 3130 3128 3127 3126 3125 3124 3121 3120 3118 3117 3116 3115 3113 3111 3109 3106 3100 3098 3094 3078 3064
3172 3173 3173 3174 3175 3175 3176 3176 3176 3177 3177 3177 3177 3177 3177 3177 3177 3177 3177 3177 3177 3177 3177 3177 3177 3176 3177 3177 3176 3176 3176 3176 3176 3176 3175 3175 3175 3174 3173 3173 3172 3171 3170 3169 3169 3168 3167 3166 3165 3164 3163 3162 3161 3159 3158 3157 3155 3154 3152 3151 3149 3147 3145 3143 3141 3140 3137 3134 3131 3129 3127 3124 3121 3120 3118 3115 3114 3113 3111 3109 3108 3104 3098 3097 3093 3075 3057
3173 3173 3174 3175 3176 3176 3176 3177 3177 3177 3177 3178 3178 3178 3177 3177 3177 3177 3177 3177 3177 3177 3177 3177 3177 3177 3176 3176 3176 3176 3176 3176 3175 3175 3175 3174 3174 3173 3172 3172 3171 3170 3170 3169 3168 3167 3166 3165 3164 3163 3162 3161 3160 3158 3157 3156 3154 3153 3152 3150 3149 3147 3144 3143 3142 3142 3141 3137 3134 3131 3128 3123 3120 3118 3116 3114 3112 3110 3109 3108 3105 3102 3097 3091 3087 3076 3059
3173 3174 3175 3176 3176 3177 3177 3177 3178 3178 3178 3178 3178 3178 3178 3178 3177 3177 3177 3177 3177 3177 3177 3177 3177 3177 3176 3176 3176 3176 3175 3175 3175 3175 3174 3174 3173 3172 3172 3171 3170 3170 3169 3168 3167 3166 3165 3164 3163 3162 3161 3160 3159 3157 3156 3155 3153 3152 3151 3149 3148 3146 3144 3142 3140 3138 3137 3134 3131 3128 3125 3121 3118 3116 3114 3112 3110 3107 3105 3105 3101 3099 3094 3083 3077 3076 3065
3175 3176 3176 3177 3177 3178 3178 3178 3178 3178 3178 3178 3178 3178 3178 3178 3177 3177 3177 3177 3177 3177 3177 3177 3176 3176 3176 3176 3175 3175 3175 3175 3174 3174 3174 3173 3172 3172 3171 3171 3170 3169 3168 3167 3167 3166 3164 3163 3162 3161 3160 3159 3158 3156 3155 3154 3152 3151 3150 3148 3147 3145 3143 3140 3137 3135 3133 3131 3128 3125 3122 3118 3115 3113 3111 3110 3108 3105 3102 3100 3097 3095 3091 3079 3071 3070 3063
3176 3177 3177 3178 3178 3178 3179 3179 3179 3179 3179 3178 3178 3178 3178 3178 3177 3177 3177 3177 3176 3176 3176 3176 3176 3176 3176 3175 3175 3174 3174 3174 3173 3173 3173 3172 3172 3171 3170 3170 3169 3168 3168 3167 3166 3165 3163 3162 3161 3160 3159 3157 3156 3155 3153 3152 3151 3150 3148 3147 3145 3143 3141 3138 3135 3132 3130 3128 3125 3121 3118 3115 3112 3111 3109 3107 3105 3102 3098 3095 3093 3090 3084 3075 3069 3064 3059
3177 3178 3178 3179 3179 3179 3179 3179 3179 3179 3179 3179 3179 3178 3178 3178 3177 3177 3176 3176 3176 3176 3176 3176 3176 3175 3175 3175 3174 3174 3173 3173 3173 3172 3172 3171 3171 3170 3169 3169 3168 3167 3167 3166 3165 3164 3162 3161 3160 3159 3157 3156 3155 3153 3152 3151 3150 3149 3147 3145 3143 3141 3138 3136 3132 3128 3126 3124 3121 3118 3114 3111 3109 3108 3106 3104 3101 3098 3095 3092 3089 3084 3077 3072 3068 3061 3055
3178 3179 3180 3180 3180 3180 3180 3180 3179 3179 3179 3179 3179 3178 3178 3178 3177 3177 3176 3176 3176 3175 3175 3175 3175 3175 3174 3174 3173 3173 3172 3172 3172 3171 3171 3170 3170 3169 3168 3168 3167 3166 3166 3165 3164 3163 3161 3160 3159 3158 3156 3155 3154 3152 3151 3150 3149 3147 3145 3143 3141 3139 3136 3134 3131 3126 3123 3121 3118 3114 3110 3108 3107 3105 3103 3101 3097 3094 3091 3088 3085 3080 3074 3069 3065 3060 3053
3180 3180 3180 3180 3180 3180 3180 3180 3180 3180 3179 3179 3179 3178 3178 3178 3177 3177 3176 3176 3175 3175 3175 3174 3174 3174 3173 3173 3173 3172 3171 3171 3171 3170 3170 3169 3169 3168 3167 3167 3166 3165 3164 3164 3162 3161 3160 3159 3158 3157 3155 3154 3153 3151 3150 3149 3147 3145 3144 3142 3140 3138 3134 3132 3129 3125 3120 3118 3116 3112 3108 3105 3104 3103 3101 3098 3095 3091 3087 3084 3081 3078 3073 3067 3062 3057 3050
3181 3181 3181 3181 3181 3181 3180 3180 3180 3180 3179 3179 3179 3178 3178 3177 3177 3176 3176 3176 3175 3175 3174 3174 3173 3173 3173 3172 3172 3171 3170 3170 3170 3169 3169 3168 3168 3167 3166 3166 3165 3164 3163 3162 3161 3160 3159 3158 3157 3155 3154 3153 3152 3150 3149 3148 3146 3144 3142 3140 3138 3136 3133 3130 3128 3123 3118 3115 3113 3109 3105 3103 3101 3100 3098 3095 3092 3088 3083 3080 3078 3075 3070 3064 3058 3051 3045
3181 3182 3182 3181 3181 3181 3181 3180 3180 3179 3179 3179 3178 3178 3177 3177 3177 3176 3176 3175 3175 3174 3173 3173 3172 3172 3171 3171 3171 3170 3169 3169 3169 3168 3168 3167 3167 3166 3165 3165 3164 3163 3162 3161 3160 3159 3158 3157 3155 3154 3153 3151 3150 3149 3147 3146 3145 3143 3141 3139 3137 3134 3132 3129 3126 3122 3117 3113 3110 3106 3102 3101 3099 3097 3095 3092 3089 3085 3079 3074 3073 3070 3064 3060 3054 3048 3042
3182 3182 3182 3182 3181 3181 3181 3180 3180 3179 3179 3178 3178 3177 3177 3176 3176 3175 3175 3174 3174 3173 3173 3172 3171 3171 3170 3170 3170 3169 3168 3168 3167 3167 3167 3166 3166 3165 3164 3163 3162 3162 3161 3160 3159 3158 3157 3155 3154 3153 3151 3150 3149 3147 3146 3144 3143 3141 3139 3137 3135 3133 3130 3127 3124 3121 3116 3113 3111 3109 3104 3100 3098 3095 3093 3090 3086 3082 3075 3068 3066 3065 3062 3057 3051 3045 3040
3182 3182 3182 3182 3181 3181 3180 3180 3179 3179 3178 3178 3177 3176 3176 3175 3175 3174 3174 3173 3173 3172 3172 3171 3170 3170 3169 3169 3169 3168 3167 3167 3166 3166 3166 3165 3165 3164 3163 3162 3161 3160 3160 3159 3158 3157 3155 3154 3153 3151 3150 3149 3147 3145 3144 3143 3141 3140 3138 3136 3134 3131 3129 3126 3123 3120 3116 3113 3110 3107 3102 3097 3095 3093 3091 3087 3084 3081 3075 3067 3063 3063 3059 3053 3048 3043 3038
3183 3182 3182 3182 3181 3181 3180 3180 3179 3178 3178 3177 3176 3176 3175 3174 3174 3173 3173 3172 3172 3171 3171 3170 3169 3169 3168 3168 3167 3167 3166 3166 3165 3165 3165 3164 3163 3163 3162 3161 3160 3159 3158 3157 3156 3155 3154 3153 3151 3150 3148 3147 3146 3144 3143 3141 3140 3138 3136 3134 3132 3130 3128 3126 3123 3120 3117 3113 3109 3104 3098 3094 3092 3091 3088 3085 3081 3078 3074 3068 3062 3059 3055 3050 3045 3040 3035
3183 3182 3182 3181 3181 3180 3179 3179 3178 3177 3177 3176 3175 3175 3174 3174 3173 3172 3172 3171 3171 3170 3170 3169 3168 3168 3167 3167 3166 3166 3165 3165 3164 3164 3163 3163 3162 3161 3161 3160 3159 3158 3157 3156 3155 3154 3153 3151 3150 3149 3147 3146 3145 3143 3142 3140 3138 3136 3134 3132 3131 3129 3126 3124 3122 3119 3116 3114 3111 3107 3101 3094 3091 3089 3086 3083 3079 3075 3071 3065 3058 3055 3052 3048 3043 3038 3034
3182 3182 3181 3180 3180 3179 3178 3178 3177 3176 3176 3175 3174 3174 3173 3172 3172 3171 3171 3170 3169 3169 3168 3168 3167 3167 3166 3166 3165 3165 3164 3164 3163 3163 3162 3162 3161 3160 3159 3158 3157 3157 3156 3155 3154 3152 3151 3150 3149 3147 3146 3144 3143 3141 3140 3138 3137 3135 3133 3131 3129 3126 3124 3122 3120 3117 3115 3112 3110 3106 3100 3094 3092 3089 3085 3081 3077 3074 3070 3063 3056 3053 3050 3046 3041 3037 3032
3182 3181 3180 3179 3178 3178 3177 3176 3175 3175 3174 3174 3173 3172 3172 3171 3170 3170 3169 3169 3168 3168 3167 3167 3166 3165 3165 3164 3164 3163 3163 3162 3162 3162 3161 3161 3160 3159 3158 3157 3156 3155 3154 3153 3152 3151 3150 3148 3147 3146 3144 3143 3141 3140 3138 3137 3135 3133 3131 3129 3127 3124 3122 3119 3117 3115 3112 3110 3107 3102 3097 3093 3091 3087 3083 3079 3075 3072 3069 3064 3058 3052 3048 3044 3039 3035 3030
3181 3180 3179 3178 3177 3176 3175 3175 3174 3173 3173 3172 3171 3171 3170 3170 3169 3168 3168 3167 3167 3166 3166 3165 3165 3164 3163 3163 3162 3162 3162 3161 3161 3160 3160 3159 3159 3158 3157 3156 3155 3154 3153 3152 3150 3149 3148 3147 3146 3144 3142 3141 3140 3138 3136 3135 3133 3131 3129 3127 3125 3123 3120 3117 3115 3112 3109 3107 3103 3098 3092 3089 3087 3084 3081 3078 3074 3070 3066 3062 3057 3051 3046 3042 3038 3033 3027
3179 3179 3178 3177 3176 3175 3174 3173 3173 3172 3171 3170 3170 3169 3168 3168 3167 3167 3166 3166 3165 3164 3164 3163 3163 3162 3162 3161 3161 3161 3160 3160 3159 3159 3159 3158 3157 3156 3155 3154 3153 3152 3151 3150 3149 3148 3146 3145 3144 3143 3141 3140 3138 3137 3135 3133 3131 3130 3128 3125 3123 3121 3118 3115 3113 3110 3107 3104 3100 3095 3090 3087 3085 3082 3079 3076 3072 3068 3062 3057 3053 3049 3044 3039 3035 3030 3025
3178 3178 3177 3176 3175 3174 3173 3172 3171 3171 3170 3169 3168 3168 3167 3166 3166 3165 3165 3164 3163 3163 3162 3162 3161 3161 3160 3160 3160 3159 3159 3159 3158 3158 3157 3156 3156 3155 3154 3153 3152 3151 3150 3148 3147 3146 3145 3143 3142 3141 3139 3138 3137 3135 3133 3131 3129 3128 3126 3124 3121 3119 3117 3114 3111 3109 3106 3102 3099 3096 3091 3087 3084 3080 3077 3073 3069 3064 3059 3054 3049 3045 3041 3036 3032 3027 3022
3178 3177 3176 3175 3174 3173 3172 3171 3170 3169 3169 3168 3167 3166 3165 3165 3164 3164 3163 3162 3162 3161 3160 3160 3160 3159 3159 3158 3158 3158 3158 3157 3157 3156 3156 3155 3154 3153 3152 3151 3150 3149 3148 3147 3145 3144 3143 3142 3140 3139 3138 3136 3135 3133 3131 3129 3127 3125 3124 3122 3119 3117 3115 3112 3109 3107 3105 3101 3097 3094 3090 3086 3082 3077 3073 3070 3066 3061 3057 3052 3047 3042 3038 3034 3029 3024 3020
3178 3177 3176 3175 3174 3173 3171 3170 3169 3168 3167 3166 3165 3165 3164 3163 3162 3162 3161 3161 3160 3159 3159 3158 3158 3158 3157 3157 3157 3157 3156 3156 3155 3155 3154 3154 3153 3152 3151 3150 3149 3147 3146 3145 3144 3143 3141 3140 3139 3137 3136 3134 3133 3131 3130 3127 3125 3123 3121 3119 3116 3114 3112 3109 3106 3103 3100 3096 3093 3090 3086 3083 3079 3074 3070 3066 3062 3058 3054 3050 3045 3040 3035 3031 3027 3022 3017
3178 3177 3176 3174 3173 3172 3171 3170 3169 3167 3166 3165 3164 3163 3162 3161 3160 3160 3159 3159 3158 3158 3157 3157 3157 3156 3156 3156 3156 3155 3155 3155 3154 3154 3153 3152 3151 3150 3149 3148 3147 3145 3144 3143 3142 3141 3139 3138 3137 3135 3134 3133 3131 3129 3127 3125 3123 3120 3118 3116 3113 3111 3109 3106 3102 3100 3096 3091 3089 3086 3082 3079 3076 3071 3067 3063 3059 3055 3051 3047 3042 3038 3033 3028 3024 3019 3015
3178 3177 3175 3174 3173 3171 3170 3169 3168 3167 3165 3164 3163 3162 3161 3160 3159 3158 3158 3157 3157 3156 3156 3156 3155 3155 3155 3155 3154 3154 3154 3153 3153 3152 3152 3151 3150 3148 3147 3146 3145 3143 3142 3141 3140 3139 3137 3136 3135 3133 3132 3130 3129 3127 3125 3123 3121 3118 3115 3113 3110 3108 3105 3102 3099 3096 3092 3088 3085 3082 3078 3075 3072 3068 3063 3060 3056 3052 3048 3044 3039 3035 3030 3025 3021 3016 3012
3178 3177 3175 3174 3173 3171 3170 3168 3167 3166 3164 3163 3162 3160 3159 3159 3158 3157 3157 3156 3156 3155 3155 3155 3154 3154 3154 3153 3153 3153 3152 3152 3151 3151 3150 3149 3148 3146 3145 3144 3143 3141 3140 3139 3137 3136 3135 3134 3132 3131 3130 3128 3126 3124 3123 3121 3118 3115 3113 3111 3108 3105 3103 3100 3096 3092 3088 3085 3082 3078 3074 3071 3069 3065 3060 3057 3053 3048 3044 3040 3036 3032 3027 3023 3019 3014 3009
3178 3176 3175 3173 3172 3170 3169 3167 3166 3165 3163 3162 3161 3160 3159 3158 3157 3156 3156 3155 3155 3154 3154 3154 3153 3153 3153 3152 3152 3152 3151 3150 3150 3149 3148 3147 3146 3144 3143 3142 3140 3139 3138 3136 3135 3134 3133 3131 3130 3129 3127 3126 3124 3122 3120 3118 3115 3112 3110 3108 3106 3103 3100 3098 3094 3089 3085 3082 3079 3075 3071 3068 3065 3062 3058 3054 3050 3045 3041 3037 3032 3028 3024 3020 3016 3011 3007
3177 3176 3174 3173 3171 3169 3168 3167 3165 3164 3162 3161 3160 3159 3158 3157 3156 3156 3155 3155 3154 3154 3153 3153 3153 3152 3152 3151 3151 3150 3150 3149 3148 3147 3146 3145 3144 3142 3141 3140 3138 3137 3135 3134 3133 3132 3130 3129 3128 3126 3125 3123 3121 3119 3117 3115 3112 3110 3108 3105 3103 3100 3098 3095 3092 3087 3083 3081 3078 3074 3069 3065 3062 3059 3055 3051 3046 3042 3038 3034 3029 3025 3021 3017 3013 3009 3004
3177 3175 3174 3172 3170 3169 3167 3166 3165 3163 3162 3161 3160 3159 3158 3157 3156 3155 3155 3154 3154 3153 3153 3152 3152 3151 3151 3150 3150 3149 3149 3148 3147 3146 3144 3143 3142 3140 3139 3137 3136 3134 3133 3132 3130 3129 3128 3126 3125 3124 3122 3121 3119 3116 3114 3112 3109 3107 3105 3103 3100 3098 3095 3092 3089 3084 3081 3078 3075 3071 3067 3063 3059 3055 3051 3047 3043 3038 3034 3030 3026 3022 3018 3014 3010 3006 3002
3177 3175 3173 3171 3170 3168 3167 3165 3164 3163 3162 3161 3160 3159 3158 3157 3156 3155 3155 3154 3153 3153 3152 3152 3151 3151 3150 3150 3149 3148 3147 3146 3145 3144 3143 3141 3140 3138 3136 3135 3134 3132 3131 3129 3128 3127 3125 3124 3122 3121 3120 3119 3116 3113 3111 3109 3106 3104 3103 3100 3097 3095 3092 3089 3086 3081 3077 3075 3072 3068 3064 3060 3055 3051 3048 3044 3039 3035 3031 3027 3023 3019 3014 3010 3006 3002 2999
3176 3174 3172 3171 3169 3167 3166 3165 3164 3163 3162 3161 3160 3159 3158 3157 3156 3156 3155 3154 3153 3153 3152 3151 3151 3150 3149 3149 3148 3147 3146 3145 3144 3143 3141 3139 3138 3136 3135 3133 3132 3130 3129 3127 3125 3124 3123 3121 3120 3118 3117 3116 3114 3110 3108 3106 3103 3101 3100 3097 3094 3091 3088 3086 3083 3079 3074 3071 3068 3064 3061 3057 3052 3048 3044 3040 3036 3032 3028 3024 3020 3016 3011 3007 3003 2999 2995
3176 3174 3172 3170 3169 3167 3166 3165 3164 3163 3162 3161 3160 3159 3158 3157 3157 3156 3155 3154 3153 3152 3152 3151 3150 3150 3149 3148 3147 3146 3145 3144 3143 3141 3139 3138 3136 3135 3133 3131 3130 3128 3127 3125 3123 3121 3120 3119 3117 3116 3114 3113 3111 3108 3105 3103 3100 3098 3096 3094 3091 3088 3086 3082 3079 3076 3072 3068 3064 3060 3057 3054 3049 3045 3041 3037 3033 3029 3025 3021 3017 3013 3009 3004 3000 2996 2992
3176 3174 3172 3170 3169 3168 3167 3166 3165 3163 3162 3161 3160 3159 3158 3158 3157 3156 3155 3154 3153 3152 3151 3151 3150 3149 3148 3148 3147 3146 3144 3143 3141 3140 3138 3136 3134 3133 3131 3129 3128 3126 3125 3123 3121 3119 3118 3116 3115 3113 3111 3110 3108 3105 3102 3100 3098 3096 3094 3091 3088 3085 3083 3080 3077 3073 3070 3066 3062 3057 3053 3050 3046 3042 3038 3034 3030 3026 3022 3018 3014 3010 3006 3001 2997 2993 2989
3176 3174 3172 3171 3170 3168 3167 3166 3165 3164 3163 3162 3161 3160 3159 3158 3157 3156 3155 3154 3153 3152 3151 3151 3150 3149 3148 3147 3146 3145 3144 3142 3140 3139 3137 3135 3133 3131 3129 3128 3126 3124 3123 3121 3119 3117 3115 3114 3112 3110 3108 3107 3105 3102 3099 3098 3096 3094 3091 3088 3086 3082 3079 3076 3074 3070 3066 3063 3059 3054 3050 3046 3043 3039 3035 3031 3027 3023 3019 3015 3010 3006 3002 2998 2994 2990 2986
3176 3174 3173 3171 3170 3168 3167 3166 3165 3164 3163 3162 3161 3160 3159 3158 3157 3156 3155 3154 3153 3152 3152 3151 3150 3149 3148 3147 3146 3144 3143 3141 3139 3137 3135 3133 3132 3130 3128 3126 3124 3122 3120 3119 3117 3115 3113 3111 3110 3107 3105 3104 3102 3099 3097 3095 3094 3092 3088 3086 3083 3079 3076 3073 3070 3066 3063 3059 3055 3051 3047 3043 3039 3036 3032 3028 3024 3020 3016 3012 3007 3003 2999 2995 2991 2987 2983
3176 3175 3173 3172 3170 3169 3167 3166 3165 3164 3163 3162 3161 3160 3159 3158 3157 3156 3155 3154 3153 3153 3152 3151 3150 3149 3148 3146 3145 3143 3142 3140 3138 3136 3134 3132 3130 3128 3126 3124 3122 3120 3118 3116 3115 3113 3111 3109 3107 3105 3103 3101 3099 3097 3095 3093 3091 3089 3086 3083 3080 3076 3073 3069 3066 3062 3059 3055 3051 3047 3043 3040 3036 3032 3028 3024 3021 3017 3013 3009 3005 3000 2996 2993 2988 2985 2981
3177 3175 3174 3172 3171 3169 3168 3167 3165 3164 3163 3162 3161 3160 3159 3158 3157 3156 3156 3155 3154 3153 3152 3151 3150 3149 3148 3146 3144 3143 3141 3139 3137 3135 3133 3131 3128 3126 3124 3122 3120 3118 3115 3114 3112 3110 3109 3107 3104 3102 3101 3099 3097 3095 3093 3091 3088 3086 3083 3080 3077 3073 3070 3066 3062 3058 3054 3051 3048 3044 3039 3036 3033 3029 3025 3021 3018 3014 3010 3006 3002 2997 2993 2990 2985 2982 2978
3177 3176 3174 3173 3171 3170 3168 3167 3166 3165 3164 3163 3162 3161 3160 3159 3158 3157 3156 3155 3154 3154 3153 3151 3150 3149 3147 3146 3144 3142 3140 3138 3136 3134 3132 3129 3127 3125 3123 3120 3118 3116 3113 3111 3110 3109 3107 3104 3102 3100 3098 3097 3095 3093 3091 3089 3086 3083 3080 3077 3074 3070 3066 3063 3059 3055 3051 3047 3044 3040 3036 3032 3029 3026 3022 3018 3014 3010 3006 3002 2998 2994 2990 2986 2982 2978 2974
3177 3176 3174 3173 3172 3170 3169 3168 3167 3165 3164 3163 3162 3161 3160 3159 3158 3157 3156 3155 3154 3153 3152 3151 3150 3148 3147 3145 3143 3141 3139 3137 3135 3133 3131 3128 3126 3124 3121 3119 3117 3115 3112 3109 3108 3107 3105 3102 3099 3098 3096 3095 3093 3091 3089 3086 3083 3079 3076 3073 3070 3066 3062 3059 3056 3052 3048 3044 3041 3037 3033 3029 3025 3022 3018 3014 3010 3007 3003 2999 2995 2990 2986 2982 2978 2974 2971
3177 3176 3175 3173 3172 3171 3169 3168 3167 3166 3165 3164 3162 3161 3160 3159 3158 3157 3156 3155 3154 3153 3152 3150 3149 3148 3146 3144 3142 3140 3138 3136 3134 3131 3129 3127 3125 3123 3120 3118 3116 3113 3110 3107 3106 3105 3102 3100 3098 3096 3094 3093 3091 3088 3086 3082 3079 3076 3072 3069 3065 3062 3058 3055 3051 3048 3044 3040 3037 3033 3029 3025 3021 3018 3014 3010 3006 3002 2999 2995 2991 2987 2983 2979 2975 2971 2967
3177 3176 3175 3173 3172 3171 3170 3169 3168 3166 3165 3164 3163 3162 3160 3159 3158 3157 3156 3155 3154 3152 3151 3150 3148 3147 3145 3143 3141 3139 3137 3134 3132 3130 3127 3125 3123 3121 3118 3116 3114 3111 3107 3105 3104 3103 3100 3098 3096 3095 3093 3091 3088 3085 3082 3079 3075 3072 3069 3065 3061 3058 3054 3050 3047 3043 3039 3035 3032 3029 3025 3021 3017 3013 3009 3005 3002 2998 2994 2991 2987 2983 2979 2975 2971 2967 2964
3177 3176 3174 3173 3172 3171 3170 3169 3168 3166 3165 3164 3163 3162 3161 3159 3158 3157 3156 3155 3153 3152 3151 3149 3147 3145 3144 3142 3140 3138 3135 3133 3130 3128 3125 3123 3121 3118 3116 3114 3112 3109 3106 3104 3102 3100 3098 3096 3094 3093 3091 3089 3085 3082 3078 3075 3071 3068 3064 3061 3057 3053 3049 3044 3041 3038 3034 3030 3026 3023 3020 3015 3012 3008 3004 3000 2996 2993 2989 2986 2982 2979 2975 2971 2967 2964 2960
3177 3175 3174 3173 3172 3171 3170 3168 3167 3166 3165 3164 3163 3162 3161 3159 3158 3157 3156 3155 3153 3152 3150 3148 3146 3144 3142 3140 3138 3136 3134 3131 3128 3126 3123 3120 3118 3116 3113 3111 3109 3106 3104 3102 3100 3098 3096 3094 3092 3090 3088 3085 3082 3079 3075 3070 3066 3062 3059 3055 3051 3047 3043 3039 3035 3032 3028 3025 3021 3017 3013 3010 3006 3003 2999 2995 2991 2987 2984 2981 2977 2974 2970 2967 2963 2960 2957
3176 3175 3174 3173 3171 3170 3169 3168 3167 3166 3165 3163 3162 3161 3160 3159 3158 3157 3155 3154 3152 3150 3149 3147 3145 3142 3140 3138 3136 3134 3132 3129 3127 3124 3120 3118 3116 3114 3111 3109 3106 3104 3102 3099 3097 3095 3094 3092 3090 3087 3084 3080 3077 3074 3070 3065 3060 3055 3051 3049 3046 3042 3037 3033 3029 3026 3023 3019 3015 3011 3007 3004 3001 2997 2994 2990 2986 2982 2979 2976 2972 2969 2966 2962 2959 2956 2953
3175 3174 3173 3172 3171 3169 3168 3167 3166 3165 3164 3163 3162 3161 3160 3158 3157 3156 3154 3153 3151 3149 3147 3145 3143 3141 3138 3136 3134 3131 3129 3127 3124 3121 3118 3116 3113 3111 3109 3107 3105 3102 3099 3096 3094 3092 3091 3089 3087 3084 3080 3075 3071 3067 3064 3060 3055 3050 3045 3042 3040 3036 3032 3028 3024 3020 3017 3013 3010 3006 3002 2998 2995 2991 2988 2985 2981 2977 2974 2970 2967 2964 2960 2957 2954 2951 2948
3174 3173 3172 3171 3170 3169 3168 3167 3165 3164 3163 3162 3161 3160 3158 3157 3155 3154 3152 3151 3149 3147 3145 3143 3140 3138 3136 3133 3131 3129 3127 3124 3122 3119 3116 3113 3110 3108 3106 3104 3102 3099 3096 3093 3091 3089 3087 3085 3083 3079 3074 3069 3065 3062 3058 3055 3051 3045 3040 3035 3033 3030 3026 3021 3017 3014 3011 3007 3003 2999 2996 2993 2989 2985 2982 2979 2975 2972 2968 2964 2961 2958 2954 2951 2949 2946 2942
3172 3171 3170 3169 3168 3167 3166 3165 3164 3163 3162 3161 3159 3158 3156 3155 3153 3151 3150 3148 3146 3144 3142 3140 3138 3135 3133 3130 3128 3126 3124 3122 3119 3116 3114 3111 3108 3105 3103 3101 3099 3097 3094 3091 3088 3087 3084 3081 3077 3072 3068 3064 3060 3056 3053 3050 3045 3041 3036 3031 3027 3024 3020 3016 3012 3008 3005 3001 2997 2994 2990 2987 2983 2980 2976 2973 2970 2966 2962 2958 2955 2951 2948 2946 2943 2940 2936
3169 3169 3168 3167 3166 3165 3164 3163 3162 3161 3160 3158 3157 3155 3154 3152 3150 3149 3147 3145 3143 3141 3139 3137 3134 3132 3129 3127 3124 3122 3120 3118 3115 3113 3111 3108 3105 3102 3100 3097 3096 3094 3091 3088 3086 3083 3079 3074 3070 3066 3063 3059 3055 3051 3047 3043 3040 3036 3032 3027 3022 3018 3014 3011 3007 3003 3000 2996 2992 2989 2986 2982 2978 2974 2970 2967 2963 2960 2956 2952 2948 2945 2942 2939 2937 2934 2930
3167 3166 3166 3165 3164 3162 3161 3161 3160 3158 3157 3155 3154 3152 3151 3149 3147 3145 3143 3142 3140 3137 3135 3133 3131 3128 3126 3123 3121 3118 3116 3114 3112 3109 3107 3105 3102 3099 3097 3094 3091 3090 3089 3086 3081 3077 3072 3068 3064 3060 3057 3054 3051 3047 3043 3039 3035 3032 3027 3023 3018 3014 3010 3006 3003 2999 2995 2992 2988 2984 2980 2976 2972 2968 2964 2960 2957 2954 2950 2946 2943 2940 2936 2933 2930 2927 2924
3164 3163 3163 3162 3161 3160 3158 3157 3156 3155 3154 3152 3151 3149 3148 3146 3144 3142 3140 3138 3136 3134 3131 3129 3127 3124 3122 3120 3117 3115 3113 3111 3109 3106 3104 3102 3099 3096 3094 3091 3089 3087 3085 3082 3077 3072 3068 3064 3060 3055 3052 3049 3047 3043 3039 3035 3031 3027 3023 3019 3014 3010 3006 3003 2999 2995 2991 2987 2983 2978 2974 2970 2966 2961 2958 2954 2951 2948 2944 2941 2938 2935 2931 2927 2923 2921 2918
3161 3160 3160 3159 3158 3157 3155 3154 3153 3151 3150 3149 3147 3146 3144 3142 3140 3139 3136 3134 3132 3130 3128 3126 3123 3121 3118 3116 3114 3112 3110 3108 3106 3104 3102 3100 3097 3094 3091 3088 3086 3083 3079 3076 3072 3068 3064 3061 3057 3052 3047 3044 3041 3038 3034 3030 3026 3022 3019 3015 3010 3006 3002 2998 2994 2990 2985 2981 2977 2972 2967 2963 2959 2955 2951 2947 2944 2940 2937 2935 2932 2929 2925 2921 2917 2915 2912
3159 3158 3157 3156 3155 3154 3152 3151 3150 3148 3147 3146 3144 3142 3141 3139 3137 3135 3133 3131 3129 3127 3125 3123 3121 3119 3116 3114 3111 3109 3107 3105 3103 3102 3100 3098 3095 3091 3087 3084 3081 3078 3073 3069 3066 3063 3060 3057 3054 3050 3045 3040 3036 3032 3028 3024 3020 3017 3013 3009 3004 3000 2996 2992 2988 2984 2979 2974 2970 2966 2961 2956 2952 2948 2944 2940 2937 2933 2930 2928 2925 2922 2919 2915 2911 2908 2905